This is the latest recevied weather packets stored in our database for station/object IK2ILW-6. If no packets are shown the sender has not sent any weather packets the latest 10 day(s).
| Time | Temp. | Humidity | Pressure | Rain* | Wind** | Luminosity | Snow |
|---|---|---|---|---|---|---|---|
| 1777650691 | 7.78° C | 70% | 1026.3 hPa | 0 mm | - | 441 W/m² | - |
| 1777650396 | 7.78° C | 73% | 1026.3 hPa | 0 mm | - | 455 W/m² | - |
| 1777650100 | 7.22° C | 73% | 1026.4 hPa | 0 mm | - | 471 W/m² | - |
| 1777649785 | 6.67° C | 72% | 1026.4 hPa | 0 mm | - | 485 W/m² | - |
| 1777649489 | 6.67° C | 73% | 1026.5 hPa | 0 mm | - | 497 W/m² | - |
| 1777649195 | 6.67° C | 73% | 1026.5 hPa | 0 mm | - | 513 W/m² | - |
| 1777648901 | 7.22° C | 70% | 1026.5 hPa | 0 mm | - | 527 W/m² | - |
| 1777648289 | 6.67° C | 72% | 1026.5 hPa | 0 mm | - | 554 W/m² | - |
| 1777647994 | 6.67° C | 70% | 1026.6 hPa | 0 mm | - | 568 W/m² | - |
| 1777647682 | 7.22° C | 70% | 1026.6 hPa | 0 mm | - | 582 W/m² | - |
| 1777647387 | 7.22° C | 70% | 1026.6 hPa | 0 mm | - | 596 W/m² | - |
| 1777647094 | 7.78° C | 70% | 1026.6 hPa | 0 mm | - | 610 W/m² | - |
| 1777646798 | 7.78° C | 71% | 1026.6 hPa | 0 mm | - | 621 W/m² | - |
| 1777646483 | 7.78° C | 69% | 1026.6 hPa | 0 mm | - | 635 W/m² | - |
| 1777646188 | 7.78° C | 70% | 1026.6 hPa | 0 mm | - | 650 W/m² | - |
| 1777645893 | 7.22° C | 70% | 1026.6 hPa | 0 mm | - | 663 W/m² | - |
| 1777645593 | 7.22° C | 71% | 1026.7 hPa | 0 mm | - | 675 W/m² | - |
| 1777645298 | 7.22° C | 71% | 1026.8 hPa | 0 mm | - | 686 W/m² | - |
| 1777644983 | 7.22° C | 72% | 1026.8 hPa | 0 mm | - | 693 W/m² | - |
| 1777644693 | 7.22° C | 74% | 1026.8 hPa | 0 mm | - | 701 W/m² | - |
| 1777644399 | 6.67° C | 71% | 1026.9 hPa | 0 mm | - | 714 W/m² | - |
| 1777644085 | 6.67° C | 72% | 1026.9 hPa | 0 mm | - | 728 W/m² | - |
| 1777643790 | 6.67° C | 69% | 1026.9 hPa | 0 mm | - | 738 W/m² | - |
| 1777643491 | 6.67° C | 70% | 1026.8 hPa | 0 mm | - | 754 W/m² | - |
| 1777643196 | 7.22° C | 73% | 1026.9 hPa | 0 mm | - | 761 W/m² | - |
* Rain latest hour (hover to see other rain measurements)
** Current wind speed in m/s (hover to see current wind gust speed)